Weather History for K0VG - November, 2011

Change the Weather History Date:

Thursday, November 3, 2011

  Actual Average (KLOZ) Record (KLOZ)
Temperature  
Mean Temperature 47 °F 52 °F  
Max Temperature 64 °F 64 °F 80 °F (1974)
Min Temperature 30 °F 40 °F 17 °F (1963)
Degree Days  
Heating Degree Days 18 13  
Month to date heating degree days 39  
Since 1 July heating degree days 345  
Cooling Degree Days 0 0  
Month to date cooling degree days 0  
Moisture  
Dew Point 40 °F    
Average Humidity 73    
Maximum Humidity 100    
Minimum Humidity 4    
Precipitation  
Precipitation 1.06 in 0.12 in 0.79 in (1982)
Month to date precipitation 0.35  
Sea Level Pressure  
Sea Level Pressure 30.02 in    
Wind  
Wind Speed 2 mph (SE)    
Max Wind Speed 9 mph    
Max Gust Speed 20 mph    
Visibility 9 miles    
Events Rain    
T = Trace of Precipitation, MM = Missing Value Source: NWS Daily Summary

Daily Weather History Graph

Daily Weather History Graph

Search for Another Location

Airport or City:

Trip Planner

Search our weather history database for the weather conditions in past years. The results will help you decide how hot, cold, wet, or windy it might be!

Date:

Astronomy

Nov. 03, 2011 Rise Set
Actual Time 7:58 AM EDT 6:34 PM EDT
Civil Twilight 7:31 AM EDT 7:01 PM EDT
Nautical Twilight 7:00 AM EDT 7:31 PM EDT
Astronomical Twilight 6:30 AM EDT 8:01 PM EDT
Moon 2:47 PM EDT (11/3) 1:19 AM EDT (11/3)
Length of Visible Light 11h 29m
Length of Day
10h 36m
First Quarter, 60% of the Moon is Illuminated
Nov 3
First Quarter
Nov 10
Full
Nov 18
Last Quarter
Nov 25
New
Dec 2
First Quarter

Hourly Weather History & Observations

Time (EDT) Temp. Dew Point Humidity Pressure Visibility Wind Dir Wind Speed Gust Speed Precip Events Conditions
12:55 AM - - N/A% - - North - - N/A   Unknown
1:15 AM 35.6 °F 33.8 °F 93% 30.21 in 10.0 mi North - - N/A   Unknown
2:55 AM 32.0 °F 32.0 °F 100% 30.18 in 18.0 mi North - - N/A   Unknown
3:15 AM - - N/A% 30.18 in 10.0 mi North - - N/A   Unknown
4:35 AM - - N/A% - - North - - N/A   Unknown
6:15 AM 176.0 °F 30.2 °F 4% 30.17 in 10.0 mi Calm Calm - N/A   Unknown
6:35 AM 32.0 °F 32.0 °F 100% 30.16 in 8.0 mi Calm Calm - N/A   Unknown
6:55 AM 32.0 °F 30.2 °F 93% 30.15 in 7.0 mi Calm Calm - N/A   Unknown
7:55 AM 30.2 °F 30.2 °F 100% 30.12 in - Calm Calm - N/A   Clear
8:15 AM - - N/A% - - North - - N/A   Unknown
8:55 AM 176.0 °F 32.0 °F 4% 30.13 in 9.0 mi North - - N/A   Clear
9:35 AM - - N/A% 30.12 in 18.0 mi North - - N/A   Unknown
12:55 PM - - N/A% - 10.0 mi North - - N/A   Clear
1:35 PM 64.4 °F 37.4 °F 37% 29.98 in 10.0 mi South 8.1 mph 19.6 mph N/A   Clear
1:55 PM 64.4 °F 37.4 °F 37% 29.96 in 10.0 mi South 9.2 mph - N/A   Clear
2:35 PM 62.6 °F 39.2 °F 42% 29.94 in 10.0 mi North - - N/A   Mostly Cloudy
2:55 PM 60.8 °F 42.8 °F 52% 29.93 in 5.0 mi South 3.5 mph - N/A Rain Light Rain
3:15 PM 57.2 °F 46.4 °F 67% 29.92 in 3.0 mi North - - 0.02 in Rain Light Rain
3:55 PM - - N/A% - - North - - N/A   Unknown
4:35 PM - - N/A% 29.91 in 140.5 mi North - - 0.89 in Rain Light Rain
6:15 PM 50.0 °F 50.0 °F 100% 29.89 in - East 5.8 mph - N/A Rain Light Rain
6:35 PM 50.0 °F 50.0 °F 100% 29.89 in 4.0 mi North - - 0.03 in Rain Light Rain
7:55 PM 50.0 °F 48.2 °F 94% 29.91 in 8.0 mi East 5.8 mph - 0.11 in   Overcast
8:15 PM 48.2 °F 48.2 °F 100% 29.90 in 10.0 mi North - - N/A   Overcast
8:55 PM 48.2 °F 48.2 °F 100% 29.91 in 7.0 mi North - - 0.01 in   Mostly Cloudy
10:35 PM - - N/A% - - North - - N/A   Unknown
11:15 PM 48.2 °F 48.2 °F 100% 29.88 in - East 3.5 mph - N/A   Unknown
11:55 PM - - N/A% - - North - - N/A   Unknown